"Pseudo-MPEC" for C5ZWRR2

Created 2021 Sep 25 18:07:06 UT using Find_Orb

Click here for an explanation of pseudo-MPECs

 
 Astrometry: 
     C5ZWRR2  C2021 09 18.18437623 23 44.52 +37 24 05.5    ~9I5b 20.99GVNEOCPG96
     C5ZWRR2  C2021 09 18.19018423 23 44.54 +37 24 00.4    ~9I5b 20.57GVNEOCPG96
     C5ZWRR2  C2021 09 18.19705223 23 44.73 +37 23 53.8    ~9I5b 20.77GVNEOCPG96
     C5ZWRR2  C2021 09 18.20380923 23 44.83 +37 23 47.5    ~9I5b 20.64GVNEOCPG96
     C5ZWRR2  C2021 09 18.36170323 23 47.57 +37 21 14.9    ~9I9b 20.91GVNEOCPG96
     C5ZWRR2  C2021 09 18.36746723 23 47.69 +37 21 08.8    ~9I9b 19.92GVNEOCPG96
     C5ZWRR2  C2021 09 18.37330523 23 47.81 +37 21 03.3    ~9I9b 20.36GVNEOCPG96
     C5ZWRR2  C2021 09 18.37909323 23 47.91 +37 20 57.4    ~9I9b 20.44GVNEOCPG96
     C5ZWRR2 KC2021 09 25kjE/4K#_rH,dTD;'nDrpdWAstrometry9hX_Eredacted;`v.QASW34
     C5ZWRR2 KC2021 09 25;UYr:Q@;ND0UmT'clickcbu2*-q)GG7xhDmDWheree8.+9#473i*W34
     C5ZWRR2 KC2021 09 25gKH`gCrq*CQjk)YiwWGbI/H3\T%8forBP`(=]TexplanationhgwW34

Station data:
(G96) Mt. Lemmon Survey  (N32.442754 W110.788720)  US/Arizona.  Observers T.
   A. Pruyne, B. M. Africano, E. J. Christensen, G. A. Farneth, D. C. Fuls,
   A. R. Gibbs, A. D. Grauer, H. Gröller, J. A. Johnson, R. A. Kowalski, S.
   M. Larson, G. J. Leonard, D. Rankin, R. L. Seaman, F. C. Shelly. 1.5-m
   reflector + 10K CCD.
(W34) Squirrel Valley Observatory, Columbus  (N35.225393 W82.154700)
   US/North Carolina.  Observer R. L. Flynn. 0.35-m f/1.9 Schmidt-Cassegrain
   + CCD.

Orbital elements:  C5ZWRR2
   Perihelion 2021 Aug 11.404001 +/- 2.40702 TT =  9:41:45 (JD 2459437.904001)
Epoch 2021 Sep 25.0 TT = JDT 2459482.5   Earth MOID: 0.5344   AutoNEOCP
M   9.15320459 +/- 0.7843449        (J2000 ecliptic)
n   0.20524721 +/- 0.00879509       Peri.   96.00814 +/- 3.6348160
a   2.84632531 +/- 0.0812996        Node   236.53262 +/- 1.5549150
e   0.4965477 +/- 0.0089402         Incl.   15.75605 +/- 0.5734670
P   4.80                   H 20.0   G  0.15   U  9.6  
q 1.43298874 +/- 0.0216952    Q 4.25966188 +/- 0.140321
From 11 observations 2021 Sept. 18-25; mean residual 0".22
Residuals in arcseconds: 
210918 G96  .47+  .18-    210918 G96  .22-  .14+    210925 W34  .16+  .22-    
210918 G96  .58-  .15+    210918 G96  .02-  .21-    210925 W34  .33-  .09+    
210918 G96  .18+  .02-    210918 G96  .16+  .11+    210925 W34  .17+  .13+    
210918 G96  .09-  .02+    210918 G96  .10+  .00     

Ephemerides (geocentric):
Date (UTC) HH   RA              Dec         delta   r     elong  mag " sig PA
---- -- -- --  -------------   -----------  ------ ------ -----  --- ---- ---
2021 09 25 18  23 26 58.819   +35 02 19.96  .56960 1.5036 144.6 20.8 .622 133
2021 09 25 19  23 26 59.985   +35 01 26.96  .56966 1.5037 144.6 20.8 .664 135
2021 09 25 20  23 27 01.152   +35 00 33.91  .56972 1.5038 144.6 20.8 .707 137
2021 09 25 21  23 27 02.321   +34 59 40.79  .56978 1.5040 144.6 20.8 .751 138
2021 09 25 22  23 27 03.491   +34 58 47.61  .56984 1.5041 144.7 20.8 .796 139
2021 09 25 23  23 27 04.662   +34 57 54.37  .56990 1.5042 144.7 20.8 .842 141
2021 09 26 00  23 27 05.834   +34 57 01.07  .56996 1.5043 144.7 20.8 .889 142
2021 09 26 01  23 27 07.007   +34 56 07.71  .57002 1.5045 144.7 20.8 .937 143
2021 09 26 02  23 27 08.182   +34 55 14.29  .57008 1.5046 144.7 20.8 .986 144
2021 09 26 03  23 27 09.358   +34 54 20.81  .57014 1.5047 144.8 20.8 1.04 145
2021 09 26 04  23 27 10.535   +34 53 27.27  .57020 1.5048 144.8 20.8 1.09 145
2021 09 26 05  23 27 11.714   +34 52 33.67  .57027 1.5050 144.8 20.8 1.14 146
2021 09 26 06  23 27 12.894   +34 51 40.01  .57033 1.5051 144.8 20.8 1.19 147
2021 09 26 07  23 27 14.075   +34 50 46.29  .57039 1.5052 144.8 20.8 1.24 147
2021 09 26 08  23 27 15.257   +34 49 52.51  .57045 1.5053 144.9 20.8 1.30 148
2021 09 26 09  23 27 16.441   +34 48 58.67  .57052 1.5055 144.9 20.8 1.35 149
2021 09 26 10  23 27 17.626   +34 48 04.77  .57058 1.5056 144.9 20.8 1.41 149
2021 09 26 11  23 27 18.812   +34 47 10.81  .57064 1.5057 144.9 20.8 1.46 150
2021 09 26 12  23 27 19.999   +34 46 16.80  .57071 1.5058 145.0 20.8 1.52 150
2021 09 26 13  23 27 21.188   +34 45 22.72  .57077 1.5060 145.0 20.8 1.58 151
2021 09 26 14  23 27 22.378   +34 44 28.58  .57083 1.5061 145.0 20.8 1.63 151
2021 09 26 15  23 27 23.570   +34 43 34.39  .57090 1.5062 145.0 20.8 1.69 151
2021 09 26 16  23 27 24.762   +34 42 40.14  .57096 1.5064 145.0 20.8 1.75 152
2021 09 26 17  23 27 25.956   +34 41 45.82  .57103 1.5065 145.1 20.8 1.81 152
2021 09 26 18  23 27 27.151   +34 40 51.45  .57109 1.5066 145.1 20.8 1.88 153
2021 09 26 19  23 27 28.348   +34 39 57.02  .57116 1.5067 145.1 20.8 1.94 153
2021 09 26 20  23 27 29.546   +34 39 02.54  .57122 1.5069 145.1 20.8 2.00 153
2021 09 26 21  23 27 30.745   +34 38 07.99  .57129 1.5070 145.1 20.8 2.06 153
2021 09 26 22  23 27 31.946   +34 37 13.39  .57136 1.5071 145.2 20.8 2.13 154
2021 09 26 23  23 27 33.147   +34 36 18.73  .57142 1.5072 145.2 20.8 2.19 154
2021 09 27 00  23 27 34.351   +34 35 24.01  .57149 1.5074 145.2 20.8 2.26 154
2021 09 27 01  23 27 35.555   +34 34 29.23  .57156 1.5075 145.2 20.8 2.33 155
2021 09 27 02  23 27 36.761   +34 33 34.39  .57162 1.5076 145.2 20.8 2.39 155
2021 09 27 03  23 27 37.968   +34 32 39.50  .57169 1.5078 145.3 20.8 2.46 155
2021 09 27 04  23 27 39.177   +34 31 44.55  .57176 1.5079 145.3 20.8 2.53 155
2021 09 27 05  23 27 40.387   +34 30 49.55  .57183 1.5080 145.3 20.8 2.60 156
2021 09 27 06  23 27 41.598   +34 29 54.48  .57190 1.5081 145.3 20.8 2.67 156
2021 09 27 07  23 27 42.810   +34 28 59.36  .57196 1.5083 145.3 20.8 2.74 156
2021 09 27 08  23 27 44.024   +34 28 04.18  .57203 1.5084 145.4 20.8 2.82 156
2021 09 27 09  23 27 45.239   +34 27 08.95  .57210 1.5085 145.4 20.8 2.89 156
2021 09 27 10  23 27 46.456   +34 26 13.66  .57217 1.5086 145.4 20.8 2.96 157
2021 09 27 11  23 27 47.674   +34 25 18.31  .57224 1.5088 145.4 20.8 3.04 157
2021 09 27 12  23 27 48.893   +34 24 22.91  .57231 1.5089 145.4 20.8 3.11 157
2021 09 27 13  23 27 50.114   +34 23 27.45  .57238 1.5090 145.5 20.8 3.19 157
2021 09 27 14  23 27 51.336   +34 22 31.93  .57245 1.5092 145.5 20.8 3.27 157
2021 09 27 15  23 27 52.560   +34 21 36.36  .57252 1.5093 145.5 20.8 3.34 157
2021 09 27 16  23 27 53.785   +34 20 40.73  .57259 1.5094 145.5 20.8 3.42 158
2021 09 27 17  23 27 55.011   +34 19 45.05  .57266 1.5096 145.5 20.8 3.50 158